Regional Weather Roundup
Issued by NWS

Home | Current Version | Previous Version | Graphics & Text | Print | Product List | Glossary On
Versions: 1 2 3 4 5 6 7 8 9 10 11 12 13 14 15 16 17 18 19 20 21 22 23 24 25 26 27 28 29 30 31 32 33 34 35 36 37 38 39 40 41 42 43 44 45 46 47 48 49 50
000
ASUS43 KMPX 260210
RWRMN
WEATHER ROUNDUP FOR MINNESOTA
NATIONAL WEATHER SERVICE TWIN CITIES/CHANHASSEN MN
800 PM CST SAT FEB 25 2017


NOTE: "FAIR" INDICATES FEW OR NO CLOUDS BELOW 12,000 FEET WITH NO
SIGNIFICANT WEATHER AND/OR OBSTRUCTIONS TO VISIBILITY. N/A MEANS
CURRENT SKY AND/OR WEATHER CONDITIONS ARE NOT AVAILABLE.

MNZ060>063-068>070-260300-
   Twin Cities Metro

CITY           SKY/WX    TMP DP  RH WIND       PRES   REMARKS
TWIN CITIES    PTCLDY    27  18  69 SW10      29.86F WCI  17
ST PAUL        CLEAR     27  19  72 S9        29.87F WCI  18
CRYSTAL        PTCLDY    28  18  66 S10G20    29.83F WCI  19
BLAINE         PTCLDY    34  21  60 SW10      29.83F WCI  26
LAKEVILLE      CLEAR     23  18  80 SW6       29.87F WCI  16
EDEN PRAIRIE   PTCLDY    27  19  72 S13       29.84F WCI  16
SOUTH ST PAUL  CLEAR     28  19  69 SW8       29.86F WCI  19
LAKE ELMO      FAIR      28  21  74 SW9G22    29.86F WCI  20
$$
MNZ001>005-007-008-013>017-022>024-027-028-260300-
   Northwest Minnesota

CITY           SKY/WX    TMP DP  RH WIND       PRES   REMARKS
BEMIDJI        CLEAR     21  18  86 W5        29.69F WCI  15
HALLOCK        CLEAR     12  10  92 CALM      29.76S
ROSEAU         PTCLDY    16  10  79 W8        29.72S WCI   5
WARROAD        MOCLDY    18  10  73 W8        29.70F WCI   7
THIEF RVR FALL CLOUDY    20  15  81 NW10      29.73F WCI   9
CROOKSTON      CLOUDY    21  16  79 N8        29.75F WCI  12
FOSSTON        CLEAR     19  18  93 NW6       29.72S WCI  11
DETROIT LAKES  CLOUDY    28  27  93 CALM      29.73S
MOORHEAD       CLOUDY    28  21  74 NW5       29.75F WCI  23
PARK RAPIDS    CLOUDY    25  21  85 S3        29.70F
MAHNOMEN       CLOUDY    24  21  90 W5        29.71F WCI  18
$$
MNZ006-009>011-018-025>026-260300-
   North Central Minnesota

CITY           SKY/WX    TMP DP  RH WIND       PRES   REMARKS
BAUDETTE       MOCLDY    18   9  68 W8        29.68F WCI   8
FLAG ISLAND    PTCLDY    16  10  79 W13       29.68R WCI   2
INTL FALLS     CLOUDY    18  14  84 S3        29.67F
WASKISH        PTCLDY    18  14  86 W8        29.70S WCI   7
BIG FORK       LGT SNOW  25  21  86 W7        29.69S WCI  17
LONGVILLE      CLOUDY    27  21  80 SW3       29.71F
GRAND RAPIDS   CLOUDY    24  18  77 SW3       29.72F
CRANE LAKE     FLURRIES  18  16  93 CALM      29.70F
ORR            CLOUDY    21  14  73 CALM      29.65F
COOK           CLOUDY    23  19  86 SW6       29.68F WCI  16
WALKER         CLOUDY    24  20  86 SW3       29.70F
$$
MNZ012-019>021-037-260300-
   Northeast Minnesota

CITY           SKY/WX    TMP DP  RH WIND       PRES   REMARKS
DULUTH         MOCLDY    26  17  68 SW12      29.71F WCI  16
ELY            CLOUDY    21  14  73 S5        29.67F WCI  15
HIBBING        PTCLDY    23  16  74 SW5       29.69F WCI  17
EVELETH        FLURRIES  24  17  76 SW5       29.70F WCI  18
DULUTH HARBOR  CLOUDY    30  19  64 SW12      29.77F WCI  21
TWO HARBORS    PTCLDY    23  16  74 W5        29.71F WCI  17
SILVER BAY     MOCLDY    18  12  79 CALM      29.70F
GRAND MARAIS     N/A     23  10  57 CALM      29.74F
G MARAIS ARPRT CLOUDY    16   7  67 SW5       29.66F WCI   9
$$
MNZ029>031-032-039>041-046>048-054>057-064-260300-
   West Central Minnesota

CITY           SKY/WX    TMP DP  RH WIND       PRES   REMARKS
FERGUS FALLS   LGT SNOW  25  25 100 CALM      29.78F
WHEATON        LGT SNOW  28  27  93 NW5       29.77F WCI  23
MORRIS         CLOUDY    30  25  80 S15       29.73F WCI  19
ALEXANDRIA     CLOUDY    30  21  69 SW12      29.73F WCI  20
ELBOW LAKE     LGT SNOW  27  27  99 N3        29.74F
WADENA         LGT SNOW  25  25 100 W3        29.72F
GLENWOOD       CLOUDY    28  21  74 S16       29.74F WCI  17
APPLETON       CLOUDY    30  21  69 S13       29.76F WCI  20
BENSON         CLOUDY    32  19  59 SW13      29.78F WCI  22
ORTONVILLE     CLOUDY    30  21  69 SW10G18   29.74F WCI  21
MADISON        MOCLDY    32  25  74 S15       29.76F WCI  22
WILLMAR        FAIR      30  23  74 SW7       29.80F WCI  23
$$
MNZ033>034-036-042>043-049>051-058-059-260300-
   Central Minnesota

CITY           SKY/WX    TMP DP  RH WIND       PRES   REMARKS
ST CLOUD       CLOUDY    30  21  69 SW17      29.78F WCI  18
SAUK CENTRE    FAIR      29  21  71 SW14      29.75F WCI  19
PAYNESVILLE    PTCLDY    29  22  73 S9        29.78F WCI  21
AITKIN         LGT SNOW  28  25  86 CALM      29.72F
PINE RIVER     LGT SNOW  27  27 100 CALM      29.76F
BRAINERD       LGT SNOW  27  26  96 S5        29.73F VSB 1   WCI  22
STAPLES        LGT SNOW  27  27 100 SW3       29.73F
LONG PRAIRIE   CLOUDY    30  21  69 S10       29.74F WCI  21
LITTLE FALLS   CLOUDY    32  21  64 SW9       29.75F WCI  24
LITCHFIELD     PTCLDY    28  21  74 SW5       29.81F WCI  23
BUFFALO        PTCLDY    29  20  70 S9G16     29.83F WCI  20
MAPLE LAKE     MOCLDY    30  23  75 S7        29.82S WCI  23
HUTCHINSON     CLEAR     29  22  74 S10       29.83F WCI  20
$$
MNZ037-044-045-052-053-260300-
   East Central Minnesota

CITY           SKY/WX    TMP DP  RH WIND       PRES   REMARKS
PRINCETON      CLOUDY    30  21  69 S8        29.79F WCI  23
MORA           PTCLDY    32  21  64 SW9       29.79F WCI  24
CAMBRIDGE      CLOUDY    34  21  60 S13       29.78F WCI  25
RUSH CITY      CLOUDY    30  19  64 S10       29.79F WCI  21
MOOSE LAKE     LGT SNOW  28  23  80 SW5       29.74F WCI  23
HINCKLEY       CLOUDY    32  21  64 S7        29.77F WCI  26
CLOQUET        LGT SNOW  27  21  80 SW7       29.73F WCI  19
MCGREGOR       CLOUDY    28  27  93 S5        29.74F VSB 3/4 WCI  23
$$
MNZ071>073-080-081-089-090-097-098-260300-
   Southwest Minnesota

CITY           SKY/WX    TMP DP  RH WIND       PRES   REMARKS
MONTEVIDEO     PTCLDY    28  21  74 SW13G18   29.80F WCI  18
GRANITE FALLS  PTCLDY    30  23  74 S14       29.81F WCI  20
CANBY          CLOUDY    30  21  70 SW9G18    29.78F WCI  21
MARSHALL       CLEAR     27  18  69 SW22G30   29.79F WCI  13
REDWOOD FALLS  PTCLDY    28  17  63 SW17      29.82F WCI  16
OLIVIA         PTCLDY    30  23  74 S16       29.80F WCI  19
PIPESTONE      MOCLDY    25  16  68 SW14      29.79F WCI  13
WINDOM         CLEAR     23  16  74 S13       29.84F WCI  11
WORTHINGTON    PTCLDY    22  16  78 S20G26    29.83F WCI   7
JACKSON        MOCLDY    23  14  68 S14       29.86F WCI  11
TRACY          PTCLDY    27  19  70 SW17      29.81F WCI  14
SLAYTON        MOCLDY    22  17  81 S12       29.82F WCI  11
$$
MNZ065>067-074>077-082>085-091>093-260300-
   South Central Minnesota

CITY           SKY/WX    TMP DP  RH WIND       PRES   REMARKS
MANKATO          N/A     24  18  77 S12       29.88F WCI  13
NEW ULM        CLOUDY    27  18  69 SW15      29.85F WCI  15
ST JAMES       CLOUDY    25  18  74 S16       29.88F WCI  12
FAIRMONT       CLOUDY    22  17  81 S14       29.89F WCI   9
GLENCOE        MOCLDY    29  24  80 S12       29.83F WCI  20
FARIBAULT      CLOUDY    21  18  86 S7        29.89F WCI  13
OWATONNA       PTCLDY    21  16  79 S15       29.89F WCI   8
WASECA         CLOUDY    23  18  80 S16       29.91F WCI  10
ALBERT LEA     CLOUDY    21  16  79 S12       29.90F WCI   9
$$
MNZ078>079-086>088-094>096-260300-
   Southeast Minnesota

CITY           SKY/WX    TMP DP  RH WIND       PRES   REMARKS
ROCHESTER      CLOUDY    16  11  80 S13       29.91F WCI   2
RED WING       MOCLDY    25  14  63 SW13      29.89F WCI  13
STANTON        CLEAR     22  15  76 S7        29.88S WCI  13
WINONA         PTCLDY    23  14  68 SW9       29.95F WCI  13
AUSTIN         CLOUDY    19  12  73 SW12      29.92S WCI   7
PRESTON        PTCLDY    17  12  78 SW12      29.93F WCI   5
$$
ABBREVIATIONS USED IN REMARKS
   TC - TEMPERATURES IN CELSIUS
  WCI - WIND CHILL INDEX
   HX - HEAT INDEX
  VSB - VISIBILITY
$$




USA.gov is the U.S. government's official web portal to all federal, state and local government web resources and services.